ENMVJD Weather Reports


time (UTC)temp
C
wind
direction
speed
KPH
gust
KPH
rain 1hr
cm
rain 24hr
cm
rain mn
cm
humidity
%
barometer
mb
20260506033931 19 113 1.6 8.0 0.00 0.00 0.00 72 1010.7
20260506031946 19 127 0.0 3.2 0.00 0.00 0.00 71 1010.5
20260506031030 20 177 0.0 1.6 0.00 0.00 0.00 71 1010.4
20260506024129 20 116 1.6 6.4 0.00 0.00 0.00 69 1010.2
20260506023146 20 65 1.6 9.7 0.00 0.00 0.00 69 1010.0
20260506022229 20 137 0.0 0.0 0.00 0.00 0.00 69 1009.9
20260506021232 21 168 0.0 3.2 0.00 0.00 0.00 68 1009.8
20260506020230 21 105 0.0 1.6 0.00 0.00 0.00 67 1009.9
20260506014229 21 101 0.0 1.6 0.00 0.00 0.00 64 1009.8
20260506013229 21 45 0.0 8.0 0.00 0.00 0.00 62 1009.7
20260506012230 20 149 0.0 1.6 0.00 0.00 0.00 60 1009.6
20260506011330 20 90 0.0 0.0 0.00 0.00 0.00 59 1009.3
20260506010345 20 90 0.0 0.0 0.00 0.00 0.00 57 1009.2
20260506005430 21 90 0.0 0.0 0.00 0.00 0.00 57 1009.3
20260506004445 21 90 0.0 0.0 0.00 0.00 0.00 55 1009.1
20260506003530 21 90 0.0 0.0 0.00 0.00 0.00 53 1008.8
20260506001632 23 90 0.0 0.0 0.00 0.00 0.00 50 1008.3
20260506000631 23 90 0.0 0.0 0.00 0.00 0.00 48 1008.4
20260505235629 24 90 0.0 0.0 0.00 0.00 0.00 47 1008.3
20260505234631 25 315 0.0 0.0 0.00 0.00 0.00 45 1008.3
20260505233647 25 157 0.0 0.0 0.00 0.00 0.00 45 1008.5
20260505232731 25 124 0.0 0.0 0.00 0.00 0.00 44 1008.4
20260505231731 25 135 0.0 0.0 0.00 0.00 0.00 43 1008.4
20260505230829 25 135 0.0 0.0 0.00 0.00 0.00 42 1008.5
20260505225928 26 135 0.0 0.0 0.00 0.00 0.00 43 1008.7
20260505224930 26 90 0.0 0.0 0.00 0.00 0.00 42 1008.7
20260505223945 26 225 0.0 0.0 0.00 0.00 0.00 41 1008.7
20260505223029 26 187 0.0 0.0 0.00 0.00 0.00 40 1008.9
20260505222046 26 127 3.2 8.0 0.00 0.00 0.00 39 1008.8
20260505221031 27 125 0.0 4.8 0.00 0.00 0.00 38 1008.7
20260505220048 28 159 0.0 1.6 0.00 0.00 0.00 37 1008.8
20260505215129 28 143 0.0 4.8 0.00 0.00 0.00 37 1008.5
20260505213131 28 225 0.0 1.6 0.00 0.00 0.00 38 1008.5
20260505211230 27 127 3.2 8.0 0.00 0.00 0.00 37 1008.8
20260505210245 28 206 0.0 4.8 0.00 0.00 0.00 36 1008.8
20260505205330 28 140 0.0 1.6 0.00 0.00 0.00 37 1008.9
20260505204329 27 28 1.6 4.8 0.00 0.00 0.00 38 1008.9
20260505203347 27 135 0.0 3.2 0.00 0.00 0.00 39 1008.9
20260505202430 27 145 3.2 8.0 0.00 0.00 0.00 38 1009.2
20260505195447 27 145 1.6 4.8 0.00 0.00 0.00 37 1009.7
20260505194529 27 136 0.0 3.2 0.00 0.00 0.00 37 1009.6
20260505193548 28 170 0.0 4.8 0.00 0.00 0.00 37 1009.8
20260505192631 28 187 0.0 4.8 0.00 0.00 0.00 39 1009.9
20260505191729 27 132 0.0 1.6 0.00 0.00 0.00 39 1009.9
20260505190730 27 221 0.0 0.0 0.00 0.00 0.00 39 1010.3
20260505185731 27 136 4.8 11.3 0.00 0.00 0.00 40 1010.6
20260505184829 27 224 0.0 3.2 0.00 0.00 0.00 40 1010.5
20260505184730 27 135 0.0 1.6 0.00 0.00 0.00 40 1010.7
20260505183731 27 224 1.6 4.8 0.00 0.00 0.00 39 1010.8
20260505182731 27 51 1.6 9.7 0.00 0.00 0.00 40 1010.9
20260505181730 27 162 0.0 3.2 0.00 0.00 0.00 41 1011.1
20260505180828 27 225 1.6 4.8 0.00 0.00 0.00 41 1011.2
20260505174828 26 76 0.0 6.4 0.00 0.00 0.00 46 1011.4
20260505173830 26 145 1.6 6.4 0.00 0.00 0.00 46 1011.4
20260505173738 26 144 4.8 9.7 0.00 0.00 0.00 47 1011.5
20260505172729 26 180 0.0 0.0 0.00 0.00 0.00 48 1011.4
20260505171730 26 48 3.2 9.7 0.00 0.00 0.00 48 1011.4
20260505170730 26 180 0.0 1.6 0.00 0.00 0.00 48 1011.3
20260505165829 26 200 3.2 9.7 0.00 0.00 0.00 47 1011.5
20260505164830 26 67 0.0 4.8 0.00 0.00 0.00 47 1011.6
20260505163848 26 225 0.0 0.0 0.00 0.00 0.00 47 1011.8
20260505162028 25 57 1.6 4.8 0.00 0.00 0.00 50 1012.1
20260505161028 25 73 0.0 4.8 0.00 0.00 0.00 52 1011.9
20260505153028 24 140 0.0 3.2 0.00 0.00 0.00 58 1012.4
20260505151028 23 180 0.0 1.6 0.00 0.00 0.00 59 1012.4
20260505140130 21 225 0.0 0.0 0.00 0.00 0.00 64 1012.2
20260505130128 18 190 0.0 1.6 0.00 0.00 0.00 71 1012.3
20260505124231 17 135 0.0 0.0 0.00 0.00 0.00 77 1012.3
20260505123328 17 164 0.0 4.8 0.00 0.00 0.00 79 1012.3
20260505122329 16 91 0.0 3.2 0.00 0.00 0.00 81 1012.3
20260505121331 15 112 0.0 1.6 0.00 0.00 0.00 83 1012.3
20260505120428 14 135 0.0 1.6 0.00 0.00 0.00 86 1012.1
20260505114528 12 270 0.0 0.0 0.00 0.00 0.00 90 1011.7
20260505113529 12 270 0.0 0.0 0.00 0.00 0.00 91 1011.8
20260505112529 12 270 0.0 0.0 0.00 0.00 0.00 91 1011.8
20260505111531 11 270 0.0 0.0 0.00 0.00 0.00 90 1011.6
20260505110548 11 270 0.0 0.0 0.00 0.00 0.00 90 1011.5
20260505101629 12 135 0.0 0.0 0.00 0.00 0.00 90 1011.1
20260505100630 12 135 0.0 0.0 0.00 0.00 0.00 90 1011.0
20260505095630 11 135 0.0 0.0 0.00 0.00 0.00 89 1011.1
20260505094628 11 135 0.0 0.0 0.00 0.00 0.00 90 1011.2
20260505093644 11 135 0.0 0.0 0.00 0.00 0.00 89 1011.2
20260505092728 11 135 0.0 0.0 0.00 0.00 0.00 89 1011.2
20260505091729 11 135 0.0 0.0 0.00 0.00 0.00 88 1011.1
20260505090828 12 135 0.0 0.0 0.00 0.00 0.00 88 1011.2
20260505085829 12 135 0.0 0.0 0.00 0.00 0.00 88 1011.2
20260505084829 12 135 0.0 0.0 0.00 0.00 0.00 87 1011.1
20260505083829 12 135 0.0 0.0 0.00 0.00 0.00 86 1011.0
20260505082848 12 135 0.0 0.0 0.00 0.00 0.00 86 1011.0
20260505081929 12 135 0.0 0.0 0.00 0.00 0.00 86 1010.9
20260505081027 12 135 0.0 0.0 0.00 0.00 0.00 86 1011.0
20260505075047 12 135 0.0 0.0 0.00 0.00 0.00 84 1010.9
20260505074027 12 135 0.0 0.0 0.00 0.00 0.00 83 1010.8
20260505071128 12 135 0.0 0.0 0.00 0.00 0.00 82 1010.7
20260505070130 13 135 0.0 0.0 0.00 0.00 0.00 81 1010.8
20260505064128 13 135 0.0 0.0 0.00 0.00 0.00 79 1010.8
20260505063128 13 135 0.0 0.0 0.00 0.00 0.00 78 1010.9
20260505062130 13 135 0.0 0.0 0.00 0.00 0.00 77 1011.1
20260505061146 13 135 0.0 0.0 0.00 0.00 0.00 77 1011.1
20260505060129 14 225 0.0 0.0 0.00 0.00 0.00 75 1011.1
20260505055146 15 225 0.0 0.0 0.00 0.00 0.00 75 1011.2
20260505054229 15 135 0.0 0.0 0.00 0.00 0.00 72 1011.2
20260505053229 15 135 0.0 0.0 0.00 0.00 0.00 72 1011.3
20260505052229 15 135 0.0 0.0 0.00 0.00 0.00 70 1011.4
20260505051245 16 67 0.0 0.0 0.00 0.00 0.00 70 1011.4
20260505050329 16 169 0.0 1.6 0.00 0.00 0.00 69 1011.5
20260505040528 17 135 0.0 0.0 0.00 0.00 0.00 64 1011.5
20260505035543 17 276 0.0 4.8 0.00 0.00 0.00 65 1011.4
20260505034542 17 190 0.0 1.6 0.00 0.00 0.00 65 1011.4